| time (UTC) | temp C | wind direction | speed KPH | gust KPH | rain 1hr cm | rain 24hr cm | rain mn cm | humidity % | barometer mb |
| 20260506070505 | 9 | 38 | 11.3 | 14.5 | 0.00 | 0.00 | 0.00 | 68 | 827.3 |
| 20260506062505 | 9 | 23 | 8.0 | 14.5 | 0.00 | 0.00 | 0.00 | 71 | 827.3 |
| 20260506061504 | 9 | 21 | 14.5 | 20.9 | 0.00 | 0.00 | 0.00 | 72 | 827.3 |
| 20260506061004 | 9 | 42 | 12.9 | 19.3 | 0.00 | 0.00 | 0.00 | 73 | 827.3 |
| 20260506060504 | 9 | 36 | 12.9 | 19.3 | 0.00 | 0.00 | 0.00 | 73 | 827.3 |
| 20260506051005 | 9 | 34 | 14.5 | 19.3 | 0.00 | 0.00 | 0.00 | 76 | 827.3 |
| 20260506045005 | 9 | 35 | 12.9 | 17.7 | 0.00 | 0.00 | 0.00 | 79 | 827.3 |
| 20260506044505 | 9 | 29 | 14.5 | 22.5 | 0.00 | 0.00 | 0.00 | 79 | 827.3 |
| 20260506044006 | 9 | 6 | 6.4 | 12.9 | 0.00 | 0.00 | 0.00 | 79 | 827.3 |
| 20260506043505 | 9 | 24 | 11.3 | 24.1 | 0.00 | 0.00 | 0.00 | 80 | 827.3 |
| 20260506043005 | 9 | 39 | 11.3 | 17.7 | 0.00 | 0.00 | 0.00 | 80 | 827.3 |
| 20260506042504 | 9 | 6 | 8.0 | 14.5 | 0.00 | 0.00 | 0.00 | 80 | 827.3 |
| 20260506042005 | 9 | 356 | 8.0 | 9.7 | 0.00 | 0.00 | 0.00 | 81 | 827.3 |
| 20260506041505 | 9 | 15 | 8.0 | 14.5 | 0.00 | 0.00 | 0.00 | 81 | 827.3 |
| 20260506041005 | 9 | 32 | 9.7 | 14.5 | 0.00 | 0.00 | 0.00 | 81 | 827.3 |
| 20260506040005 | 9 | 33 | 9.7 | 14.5 | 0.00 | 0.00 | 0.00 | 81 | 827.3 |
| 20260506035507 | 9 | 7 | 6.4 | 12.9 | 0.00 | 0.00 | 0.00 | 81 | 827.3 |
| 20260506035004 | 9 | 10 | 6.4 | 12.9 | 0.00 | 0.00 | 0.00 | 81 | 827.3 |
| 20260506034504 | 9 | 1 | 3.2 | 8.0 | 0.00 | 0.00 | 0.00 | 81 | 827.3 |
| 20260506034005 | 9 | 1 | 6.4 | 11.3 | 0.00 | 0.00 | 0.00 | 81 | 827.3 |
| 20260506033505 | 9 | 16 | 6.4 | 11.3 | 0.00 | 0.00 | 0.00 | 81 | 827.3 |
| 20260506033005 | 9 | 21 | 6.4 | 14.5 | 0.00 | 0.00 | 0.00 | 80 | 827.3 |
| 20260506032505 | 9 | 37 | 9.7 | 14.5 | 0.00 | 0.00 | 0.00 | 81 | 827.3 |
| 20260506032005 | 9 | 29 | 8.0 | 12.9 | 0.00 | 0.00 | 0.00 | 81 | 827.3 |
| 20260506031504 | 9 | 34 | 11.3 | 16.1 | 0.00 | 0.00 | 0.00 | 81 | 827.3 |
| 20260506030005 | 9 | 348 | 8.0 | 14.5 | 0.00 | 0.00 | 0.00 | 81 | 827.3 |
| 20260506025505 | 9 | 353 | 6.4 | 8.0 | 0.00 | 0.00 | 0.00 | 80 | 827.3 |
| 20260506025005 | 9 | 344 | 6.4 | 12.9 | 0.00 | 0.00 | 0.00 | 80 | 827.3 |
| 20260506024505 | 10 | 26 | 11.3 | 19.3 | 0.00 | 0.00 | 0.00 | 80 | 827.3 |
| 20260506024005 | 10 | 28 | 11.3 | 17.7 | 0.00 | 0.00 | 0.00 | 80 | 827.3 |
| 20260506023505 | 10 | 354 | 6.4 | 9.7 | 0.00 | 0.00 | 0.00 | 79 | 827.3 |
| 20260506023005 | 10 | 358 | 4.8 | 11.3 | 0.00 | 0.00 | 0.00 | 78 | 827.3 |
| 20260506022504 | 10 | 32 | 12.9 | 20.9 | 0.00 | 0.00 | 0.00 | 78 | 827.3 |
| 20260506022005 | 10 | 26 | 11.3 | 17.7 | 0.00 | 0.00 | 0.00 | 78 | 827.3 |
| 20260506021506 | 10 | 354 | 9.7 | 14.5 | 0.00 | 0.00 | 0.00 | 78 | 827.3 |
| 20260506021004 | 10 | 21 | 6.4 | 11.3 | 0.00 | 0.00 | 0.00 | 78 | 827.3 |
| 20260506020505 | 10 | 17 | 6.4 | 11.3 | 0.00 | 0.00 | 0.00 | 78 | 827.3 |
| 20260506015504 | 10 | 12 | 6.4 | 11.3 | 0.00 | 0.00 | 0.00 | 77 | 827.4 |
| 20260506015005 | 10 | 15 | 8.0 | 12.9 | 0.00 | 0.00 | 0.00 | 77 | 827.4 |
| 20260506014505 | 10 | 6 | 4.8 | 11.3 | 0.00 | 0.00 | 0.00 | 76 | 827.4 |
| 20260506014004 | 10 | 10 | 4.8 | 6.4 | 0.00 | 0.00 | 0.00 | 76 | 827.4 |
| 20260506013505 | 10 | 347 | 3.2 | 8.0 | 0.00 | 0.00 | 0.00 | 76 | 827.4 |
| 20260506013005 | 10 | 359 | 3.2 | 4.8 | 0.00 | 0.00 | 0.00 | 75 | 827.4 |
| 20260506012505 | 10 | 354 | 4.8 | 11.3 | 0.00 | 0.00 | 0.00 | 75 | 827.4 |
| 20260506011506 | 10 | 3 | 6.4 | 8.0 | 0.00 | 0.00 | 0.00 | 74 | 827.4 |
| 20260506011004 | 10 | 338 | 3.2 | 4.8 | 0.00 | 0.00 | 0.00 | 74 | 827.4 |
| 20260506010504 | 10 | 348 | 6.4 | 12.9 | 0.00 | 0.00 | 0.00 | 74 | 827.4 |
| 20260506010005 | 11 | 356 | 4.8 | 11.3 | 0.00 | 0.00 | 0.00 | 74 | 827.4 |
| 20260506005504 | 11 | 4 | 6.4 | 9.7 | 0.00 | 0.00 | 0.00 | 75 | 827.4 |
| 20260506005005 | 11 | 345 | 3.2 | 8.0 | 0.00 | 0.00 | 0.00 | 75 | 827.4 |
| 20260506004506 | 11 | 349 | 3.2 | 6.4 | 0.00 | 0.00 | 0.00 | 75 | 827.4 |
| 20260506002504 | 11 | 19 | 8.0 | 12.9 | 0.00 | 0.00 | 0.00 | 75 | 827.5 |
| 20260506002006 | 11 | 355 | 3.2 | 4.8 | 0.00 | 0.00 | 0.00 | 76 | 827.5 |
| 20260506001504 | 11 | 24 | 8.0 | 14.5 | 0.00 | 0.00 | 0.00 | 76 | 827.5 |
| 20260506001005 | 11 | 19 | 9.7 | 12.9 | 0.00 | 0.00 | 0.00 | 75 | 827.5 |
| 20260506000505 | 11 | 31 | 6.4 | 14.5 | 0.00 | 0.00 | 0.00 | 76 | 827.5 |
| 20260505235505 | 11 | 353 | 6.4 | 11.3 | 0.00 | 0.00 | 0.00 | 75 | 827.5 |
| 20260505235005 | 11 | 16 | 6.4 | 9.7 | 0.00 | 0.00 | 0.00 | 74 | 827.5 |
| 20260505234505 | 11 | 355 | 6.4 | 12.9 | 0.00 | 0.00 | 0.00 | 74 | 827.5 |
| 20260505234004 | 11 | 356 | 6.4 | 11.3 | 0.00 | 0.00 | 0.00 | 74 | 827.5 |
| 20260505233004 | 11 | 26 | 6.4 | 11.3 | 0.00 | 0.00 | 0.00 | 74 | 827.5 |
| 20260505232505 | 11 | 2 | 4.8 | 9.7 | 0.00 | 0.00 | 0.00 | 75 | 827.5 |
| 20260505232004 | 11 | 2 | 6.4 | 14.5 | 0.00 | 0.00 | 0.00 | 74 | 827.5 |
| 20260505231506 | 11 | 16 | 6.4 | 12.9 | 0.00 | 0.00 | 0.00 | 75 | 827.5 |
| 20260505230505 | 11 | 335 | 6.4 | 12.9 | 0.00 | 0.00 | 0.00 | 75 | 827.5 |
| 20260505230004 | 11 | 3 | 8.0 | 11.3 | 0.00 | 0.00 | 0.00 | 75 | 827.5 |
| 20260505225505 | 11 | 342 | 6.4 | 9.7 | 0.00 | 0.00 | 0.00 | 75 | 827.5 |
| 20260505225005 | 11 | 345 | 6.4 | 17.7 | 0.00 | 0.00 | 0.00 | 75 | 827.5 |
| 20260505224505 | 11 | 346 | 8.0 | 11.3 | 0.00 | 0.00 | 0.00 | 75 | 827.5 |
| 20260505224004 | 11 | 347 | 4.8 | 11.3 | 0.00 | 0.00 | 0.00 | 75 | 827.5 |
| 20260505223005 | 12 | 353 | 6.4 | 11.3 | 0.00 | 0.00 | 0.00 | 76 | 827.5 |
| 20260505222505 | 12 | 347 | 6.4 | 12.9 | 0.00 | 0.00 | 0.00 | 76 | 827.6 |
| 20260505222005 | 12 | 7 | 6.4 | 9.7 | 0.00 | 0.00 | 0.00 | 76 | 827.6 |
| 20260505221005 | 12 | 3 | 3.2 | 6.4 | 0.00 | 0.00 | 0.00 | 77 | 827.6 |
| 20260505220505 | 12 | 0 | 4.8 | 6.4 | 0.00 | 0.00 | 0.00 | 77 | 827.6 |
| 20260505220005 | 12 | 357 | 4.8 | 8.0 | 0.00 | 0.00 | 0.00 | 78 | 827.6 |
| 20260505215505 | 12 | 8 | 3.2 | 8.0 | 0.00 | 0.00 | 0.00 | 78 | 827.6 |
| 20260505215004 | 12 | 3 | 3.2 | 3.2 | 0.00 | 0.00 | 0.00 | 79 | 827.6 |
| 20260505214505 | 12 | 9 | 6.4 | 12.9 | 0.00 | 0.00 | 0.00 | 79 | 827.6 |
| 20260505214005 | 12 | 18 | 4.8 | 11.3 | 0.00 | 0.00 | 0.00 | 79 | 827.6 |
| 20260505213005 | 12 | 9 | 6.4 | 9.7 | 0.00 | 0.00 | 0.00 | 80 | 827.6 |
| 20260505211505 | 12 | 2 | 6.4 | 9.7 | 0.00 | 0.00 | 0.00 | 81 | 827.6 |
| 20260505205505 | 12 | 353 | 8.0 | 12.9 | 0.00 | 0.00 | 0.00 | 81 | 827.6 |
| 20260505205005 | 12 | 347 | 6.4 | 11.3 | 0.00 | 0.00 | 0.00 | 81 | 827.6 |
| 20260505204505 | 12 | 344 | 6.4 | 12.9 | 0.00 | 0.00 | 0.00 | 81 | 827.6 |
| 20260505204006 | 12 | 11 | 4.8 | 9.7 | 0.00 | 0.00 | 0.00 | 81 | 827.7 |
| 20260505203504 | 12 | 2 | 9.7 | 16.1 | 0.00 | 0.00 | 0.00 | 81 | 827.7 |
| 20260505203005 | 13 | 349 | 8.0 | 14.5 | 0.00 | 0.00 | 0.00 | 80 | 827.7 |
| 20260505202504 | 13 | 357 | 6.4 | 11.3 | 0.00 | 0.00 | 0.00 | 80 | 827.7 |
| 20260505202005 | 13 | 353 | 8.0 | 11.3 | 0.00 | 0.00 | 0.00 | 79 | 827.7 |
| 20260505200505 | 13 | 18 | 8.0 | 12.9 | 0.00 | 0.00 | 0.00 | 79 | 827.8 |
| 20260505200004 | 13 | 32 | 9.7 | 14.5 | 0.00 | 0.00 | 0.00 | 80 | 827.8 |
| 20260505195505 | 13 | 9 | 6.4 | 9.7 | 0.00 | 0.00 | 0.00 | 80 | 827.7 |
| 20260505195004 | 13 | 342 | 6.4 | 14.5 | 0.00 | 0.00 | 0.00 | 80 | 827.7 |
| 20260505194505 | 13 | 357 | 4.8 | 6.4 | 0.00 | 0.00 | 0.00 | 80 | 827.8 |
| 20260505194005 | 13 | 0 | 4.8 | 6.4 | 0.00 | 0.00 | 0.00 | 80 | 827.8 |
| 20260505193504 | 13 | 12 | 6.4 | 9.7 | 0.00 | 0.00 | 0.00 | 80 | 827.8 |
| 20260505192505 | 13 | 333 | 6.4 | 12.9 | 0.00 | 0.00 | 0.00 | 80 | 827.8 |
| 20260505191505 | 14 | 353 | 4.8 | 9.7 | 0.00 | 0.00 | 0.00 | 80 | 827.8 |
| 20260505191004 | 14 | 351 | 6.4 | 11.3 | 0.00 | 0.00 | 0.00 | 80 | 827.8 |
| 20260505190505 | 14 | 326 | 9.7 | 16.1 | 0.00 | 0.00 | 0.00 | 80 | 827.8 |
| 20260505185505 | 14 | 1 | 6.4 | 11.3 | 0.00 | 0.00 | 0.00 | 79 | 827.8 |
| 20260505185004 | 14 | 345 | 6.4 | 12.9 | 0.00 | 0.00 | 0.00 | 79 | 827.8 |
| 20260505184505 | 14 | 350 | 6.4 | 11.3 | 0.00 | 0.00 | 0.00 | 79 | 827.9 |
| 20260505183004 | 15 | 353 | 8.0 | 24.1 | 0.00 | 0.00 | 0.00 | 80 | 827.9 |
| 20260505182505 | 15 | 348 | 8.0 | 16.1 | 0.00 | 0.00 | 0.00 | 80 | 827.9 |
| 20260505182006 | 15 | 347 | 6.4 | 12.9 | 0.00 | 0.00 | 0.00 | 80 | 827.9 |
| 20260505181505 | 15 | 7 | 6.4 | 11.3 | 0.00 | 0.00 | 0.00 | 80 | 827.9 |
| 20260505181004 | 15 | 4 | 9.7 | 12.9 | 0.00 | 0.00 | 0.00 | 80 | 827.9 |
| 20260505180506 | 15 | 357 | 4.8 | 9.7 | 0.00 | 0.00 | 0.00 | 80 | 827.9 |
| 20260505180005 | 15 | 12 | 8.0 | 14.5 | 0.00 | 0.00 | 0.00 | 79 | 827.9 |
| 20260505175508 | 15 | 355 | 8.0 | 14.5 | 0.00 | 0.00 | 0.00 | 79 | 827.9 |
| 20260505175004 | 16 | 332 | 6.4 | 12.9 | 0.00 | 0.00 | 0.00 | 79 | 828.0 |
| 20260505173505 | 17 | 329 | 8.0 | 14.5 | 0.00 | 0.00 | 0.00 | 78 | 828.1 |
| 20260505172505 | 18 | 354 | 8.0 | 12.9 | 0.00 | 0.00 | 0.00 | 77 | 828.3 |
| 20260505172005 | 19 | 333 | 12.9 | 30.6 | 0.00 | 0.00 | 0.00 | 77 | 828.3 |
| 20260505171505 | 20 | 341 | 9.7 | 19.3 | 0.00 | 0.00 | 0.00 | 75 | 828.4 |
| 20260505171005 | 22 | 345 | 12.9 | 19.3 | 0.00 | 0.00 | 0.00 | 74 | 828.5 |
| 20260505170505 | 23 | 316 | 11.3 | 14.5 | 0.00 | 0.00 | 0.00 | 71 | 828.7 |
| 20260505170005 | 24 | 324 | 6.4 | 11.3 | 0.00 | 0.00 | 0.00 | 66 | 829.0 |
| 20260505165504 | 24 | 306 | 3.2 | 6.4 | 0.00 | 0.00 | 0.00 | 63 | 829.0 |
| 20260505165005 | 25 | 310 | 4.8 | 6.4 | 0.00 | 0.00 | 0.00 | 63 | 829.0 |
| 20260505164504 | 25 | 313 | 3.2 | 8.0 | 0.00 | 0.00 | 0.00 | 67 | 829.0 |
| 20260505164005 | 25 | 249 | 3.2 | 6.4 | 0.00 | 0.00 | 0.00 | 64 | 829.0 |
| 20260505163505 | 25 | 332 | 1.6 | 4.8 | 0.00 | 0.00 | 0.00 | 65 | 829.0 |
| 20260505163006 | 25 | 240 | 1.6 | 1.6 | 0.00 | 0.00 | 0.00 | 64 | 829.1 |
| 20260505162505 | 25 | 278 | 0.0 | 0.0 | 0.00 | 0.00 | 0.00 | 65 | 829.1 |
| 20260505162005 | 24 | 103 | 1.6 | 3.2 | 0.00 | 0.00 | 0.00 | 67 | 829.0 |
| 20260505161505 | 23 | 204 | 1.6 | 3.2 | 0.00 | 0.00 | 0.00 | 70 | 828.9 |
| 20260505161005 | 23 | 234 | 3.2 | 6.4 | 0.00 | 0.00 | 0.00 | 68 | 828.9 |
| 20260505160505 | 23 | 191 | 4.8 | 6.4 | 0.00 | 0.00 | 0.00 | 69 | 828.8 |
| 20260505152504 | 22 | 224 | 3.2 | 4.8 | 0.00 | 0.00 | 0.00 | 73 | 828.8 |
| 20260505152004 | 22 | 222 | 4.8 | 4.8 | 0.00 | 0.00 | 0.00 | 73 | 828.7 |
| 20260505151504 | 22 | 222 | 3.2 | 4.8 | 0.00 | 0.00 | 0.00 | 73 | 828.7 |
| 20260505151005 | 22 | 279 | 3.2 | 9.7 | 0.00 | 0.00 | 0.00 | 74 | 828.7 |
| 20260505150504 | 22 | 218 | 6.4 | 9.7 | 0.00 | 0.00 | 0.00 | 73 | 828.7 |
| 20260505140504 | 22 | 251 | 3.2 | 6.4 | 0.00 | 0.00 | 0.00 | 76 | 828.7 |
| 20260505125006 | 21 | 203 | 3.2 | 4.8 | 0.00 | 0.00 | 0.00 | 78 | 828.5 |
| 20260505124505 | 21 | 241 | 1.6 | 4.8 | 0.00 | 0.00 | 0.00 | 79 | 828.5 |
| 20260505124005 | 21 | 188 | 4.8 | 6.4 | 0.00 | 0.00 | 0.00 | 79 | 828.5 |
| 20260505123004 | 21 | 185 | 3.2 | 6.4 | 0.00 | 0.00 | 0.00 | 79 | 828.5 |
| 20260505121505 | 21 | 197 | 4.8 | 6.4 | 0.00 | 0.00 | 0.00 | 79 | 828.5 |
| 20260505120005 | 21 | 188 | 9.7 | 20.9 | 0.00 | 0.00 | 0.00 | 79 | 828.5 |
| 20260505115005 | 21 | 194 | 8.0 | 14.5 | 0.00 | 0.00 | 0.00 | 79 | 828.5 |
| 20260505114504 | 21 | 187 | 8.0 | 14.5 | 0.00 | 0.00 | 0.00 | 78 | 828.5 |
| 20260505114005 | 21 | 194 | 8.0 | 12.9 | 0.00 | 0.00 | 0.00 | 78 | 828.5 |
| 20260505113506 | 21 | 185 | 6.4 | 11.3 | 0.00 | 0.00 | 0.00 | 78 | 828.5 |
| 20260505113005 | 21 | 193 | 8.0 | 14.5 | 0.00 | 0.00 | 0.00 | 78 | 828.5 |
| 20260505112505 | 21 | 189 | 6.4 | 14.5 | 0.00 | 0.00 | 0.00 | 78 | 828.5 |
| 20260505112006 | 21 | 194 | 9.7 | 19.3 | 0.00 | 0.00 | 0.00 | 77 | 828.5 |
| 20260505111505 | 21 | 187 | 6.4 | 12.9 | 0.00 | 0.00 | 0.00 | 77 | 828.5 |
| 20260505111005 | 21 | 182 | 6.4 | 9.7 | 0.00 | 0.00 | 0.00 | 77 | 828.5 |
| 20260505110505 | 21 | 189 | 6.4 | 9.7 | 0.00 | 0.00 | 0.00 | 77 | 828.5 |
| 20260505102005 | 21 | 198 | 6.4 | 12.9 | 0.00 | 0.00 | 0.00 | 75 | 828.6 |
| 20260505101506 | 21 | 191 | 8.0 | 12.9 | 0.00 | 0.00 | 0.00 | 75 | 828.6 |
| 20260505101005 | 21 | 208 | 4.8 | 9.7 | 0.00 | 0.00 | 0.00 | 76 | 828.6 |
| 20260505100505 | 21 | 175 | 6.4 | 12.9 | 0.00 | 0.00 | 0.00 | 76 | 828.6 |
| 20260505095504 | 21 | 188 | 8.0 | 11.3 | 0.00 | 0.00 | 0.00 | 75 | 828.6 |
| 20260505094504 | 21 | 170 | 9.7 | 14.5 | 0.00 | 0.00 | 0.00 | 75 | 828.6 |
| 20260505094005 | 22 | 194 | 4.8 | 9.7 | 0.00 | 0.00 | 0.00 | 75 | 828.6 |
| 20260505093505 | 22 | 194 | 9.7 | 19.3 | 0.00 | 0.00 | 0.00 | 74 | 828.6 |
| 20260505093004 | 22 | 190 | 8.0 | 12.9 | 0.00 | 0.00 | 0.00 | 74 | 828.6 |
| 20260505092505 | 22 | 197 | 6.4 | 14.5 | 0.00 | 0.00 | 0.00 | 74 | 828.6 |
| 20260505092006 | 22 | 192 | 8.0 | 12.9 | 0.00 | 0.00 | 0.00 | 74 | 828.6 |
| 20260505091505 | 22 | 191 | 6.4 | 9.7 | 0.00 | 0.00 | 0.00 | 74 | 828.6 |
| 20260505090010 | 22 | 195 | 8.0 | 12.9 | 0.00 | 0.00 | 0.00 | 74 | 828.6 |
| 20260505085506 | 22 | 190 | 6.4 | 12.9 | 0.00 | 0.00 | 0.00 | 74 | 828.6 |
| 20260505085005 | 22 | 197 | 6.4 | 12.9 | 0.00 | 0.00 | 0.00 | 74 | 828.6 |
| 20260505084505 | 22 | 179 | 6.4 | 9.7 | 0.00 | 0.00 | 0.00 | 74 | 828.6 |
| 20260505084005 | 22 | 185 | 6.4 | 9.7 | 0.00 | 0.00 | 0.00 | 74 | 828.6 |
| 20260505083504 | 22 | 194 | 8.0 | 17.7 | 0.00 | 0.00 | 0.00 | 74 | 828.6 |
| 20260505083005 | 21 | 193 | 11.3 | 17.7 | 0.00 | 0.00 | 0.00 | 74 | 828.6 |
| 20260505082504 | 21 | 168 | 8.0 | 14.5 | 0.00 | 0.00 | 0.00 | 75 | 828.6 |
| 20260505082005 | 21 | 198 | 6.4 | 14.5 | 0.00 | 0.00 | 0.00 | 75 | 828.6 |
| 20260505081505 | 21 | 173 | 4.8 | 8.0 | 0.00 | 0.00 | 0.00 | 74 | 828.6 |
| 20260505081005 | 21 | 197 | 9.7 | 12.9 | 0.00 | 0.00 | 0.00 | 74 | 828.6 |
| 20260505080504 | 21 | 188 | 8.0 | 14.5 | 0.00 | 0.00 | 0.00 | 75 | 828.6 |
| 20260505080005 | 21 | 183 | 6.4 | 14.5 | 0.00 | 0.00 | 0.00 | 75 | 828.6 |
| 20260505075505 | 21 | 174 | 6.4 | 9.7 | 0.00 | 0.00 | 0.00 | 75 | 828.6 |
| 20260505075005 | 21 | 187 | 8.0 | 14.5 | 0.00 | 0.00 | 0.00 | 75 | 828.6 |
| 20260505074506 | 21 | 171 | 4.8 | 8.0 | 0.00 | 0.00 | 0.00 | 76 | 828.6 |
| 20260505073505 | 21 | 163 | 6.4 | 12.9 | 0.00 | 0.00 | 0.00 | 75 | 828.6 |
| 20260505073004 | 21 | 189 | 6.4 | 11.3 | 0.00 | 0.00 | 0.00 | 75 | 828.6 |
| 20260505072505 | 21 | 188 | 6.4 | 12.9 | 0.00 | 0.00 | 0.00 | 75 | 828.6 |
| 20260505071506 | 21 | 180 | 8.0 | 14.5 | 0.00 | 0.00 | 0.00 | 75 | 828.6 |
| 20260505071005 | 21 | 185 | 6.4 | 12.9 | 0.00 | 0.00 | 0.00 | 75 | 828.6 |